TimeEEST,TemperatureF,Dew PointF,Humidity,Sea Level PressureIn,VisibilityMPH,Wind Direction,Wind SpeedMPH,Gust SpeedMPH,PrecipitationIn,Events,Conditions,WindDirDegrees,DateUTC
12:50 AM,68.0,51.8,56,30.04,-9999.0,NW,9.2,-,N/A,,Clear,320,2012-10-05 21:50:00
1:50 AM,71.6,50.0,46,30.06,-9999.0,WNW,9.2,-,N/A,,Clear,300,2012-10-05 22:50:00
2:50 AM,69.8,50.0,49,30.04,-9999.0,NW,9.2,-,N/A,,Clear,320,2012-10-05 23:50:00
3:50 AM,68.0,51.8,56,30.06,-9999.0,NNW,9.2,-,N/A,,Clear,340,2012-10-06 00:50:00
4:50 AM,68.0,51.8,56,30.04,-9999.0,NNW,8.1,-,N/A,,Clear,330,2012-10-06 01:50:00
5:50 AM,66.2,51.8,60,30.04,-9999.0,Calm,Calm,-,N/A,,Clear,0,2012-10-06 02:50:00
6:20 AM,68.0,51.8,56,30.04,-9999.0,Calm,Calm,-,N/A,,Clear,0,2012-10-06 03:20:00
6:50 AM,69.8,51.8,53,30.04,-9999.0,NW,6.9,-,N/A,,Clear,320,2012-10-06 03:50:00
7:20 AM,69.8,51.8,53,30.06,-9999.0,WNW,5.8,-,N/A,,Clear,300,2012-10-06 04:20:00
7:50 AM,69.8,53.6,56,30.06,-9999.0,NNW,4.6,-,N/A,,Clear,330,2012-10-06 04:50:00
8:20 AM,73.4,51.8,47,30.06,-9999.0,NNW,5.8,-,N/A,,Clear,330,2012-10-06 05:20:00
8:50 AM,75.2,53.6,47,30.06,-9999.0,NNW,5.8,-,N/A,,Clear,340,2012-10-06 05:50:00
9:20 AM,75.2,51.8,44,30.09,-9999.0,NNW,8.1,-,N/A,,Clear,330,2012-10-06 06:20:00
9:50 AM,77.0,53.6,44,30.09,-9999.0,North,8.1,-,N/A,,Clear,350,2012-10-06 06:50:00
10:20 AM,78.8,53.6,42,30.09,-9999.0,NNW,12.7,-,N/A,,Clear,340,2012-10-06 07:20:00
10:50 AM,78.8,53.6,42,30.06,-9999.0,North,11.5,-,N/A,,Clear,350,2012-10-06 07:50:00
11:20 AM,80.6,51.8,37,30.09,6.2,North,11.5,25.3,N/A,,Partly Cloudy,350,2012-10-06 08:20:00
11:50 AM,80.6,53.6,39,30.09,6.2,North,10.4,21.9,N/A,,Partly Cloudy,350,2012-10-06 08:50:00
12:20 PM,82.4,53.6,37,30.09,6.2,NNW,12.7,25.3,N/A,,Partly Cloudy,340,2012-10-06 09:20:00
12:50 PM,84.2,51.8,33,30.06,6.2,North,8.1,20.7,N/A,,Partly Cloudy,360,2012-10-06 09:50:00
1:20 PM,84.2,51.8,33,30.06,6.2,North,11.5,24.2,N/A,,Partly Cloudy,350,2012-10-06 10:20:00
1:50 PM,84.2,50.0,30,30.06,6.2,NNW,12.7,-,N/A,,Partly Cloudy,340,2012-10-06 10:50:00
2:20 PM,84.2,50.0,30,30.04,6.2,North,13.8,-,N/A,,Partly Cloudy,350,2012-10-06 11:20:00
2:50 PM,86.0,50.0,29,30.04,6.2,North,12.7,-,N/A,,Partly Cloudy,350,2012-10-06 11:50:00
3:20 PM,84.2,48.2,29,30.04,6.2,North,12.7,-,N/A,,Partly Cloudy,350,2012-10-06 12:20:00
3:50 PM,86.0,48.2,27,30.04,6.2,NNW,11.5,-,N/A,,Partly Cloudy,340,2012-10-06 12:50:00
4:20 PM,84.2,48.2,29,30.04,6.2,NNW,12.7,-,N/A,,Partly Cloudy,330,2012-10-06 13:20:00
4:50 PM,84.2,50.0,30,30.01,6.2,NNW,11.5,-,N/A,,Partly Cloudy,340,2012-10-06 13:50:00
5:20 PM,84.2,50.0,30,30.04,6.2,NNW,12.7,-,N/A,,Partly Cloudy,340,2012-10-06 14:20:00
5:50 PM,82.4,48.2,30,30.04,6.2,North,10.4,-,N/A,,Partly Cloudy,360,2012-10-06 14:50:00
6:20 PM,80.6,50.0,34,30.04,6.2,North,11.5,-,N/A,,Partly Cloudy,350,2012-10-06 15:20:00
6:50 PM,78.8,50.0,36,30.04,-9999.0,NNW,10.4,-,N/A,,Clear,340,2012-10-06 15:50:00
7:20 PM,78.8,50.0,36,30.04,-9999.0,North,8.1,-,N/A,,Clear,350,2012-10-06 16:20:00
7:50 PM,77.0,51.8,41,30.04,-9999.0,North,9.2,-,N/A,,Clear,350,2012-10-06 16:50:00
8:20 PM,75.2,51.8,44,30.04,-9999.0,North,6.9,-,N/A,,Clear,350,2012-10-06 17:20:00
8:50 PM,73.4,51.8,47,30.06,-9999.0,Variable,3.5,-,N/A,,Clear,0,2012-10-06 17:50:00
9:20 PM,73.4,51.8,47,30.06,-9999.0,NW,5.8,-,N/A,,Clear,310,2012-10-06 18:20:00
9:50 PM,73.4,51.8,47,30.06,-9999.0,NW,6.9,-,N/A,,Clear,310,2012-10-06 18:50:00
10:20 PM,73.4,51.8,47,30.06,-9999.0,WNW,4.6,-,N/A,,Clear,300,2012-10-06 19:20:00
10:50 PM,73.4,51.8,47,30.04,-9999.0,West,6.9,-,N/A,,Clear,270,2012-10-06 19:50:00
11:20 PM,73.4,50.0,44,30.04,-9999.0,WNW,5.8,-,N/A,,Clear,300,2012-10-06 20:20:00
11:50 PM,71.6,48.2,43,30.04,-9999.0,WNW,6.9,-,N/A,,Clear,300,2012-10-06 20:50:00